Location: Ernez
(36.4595°N, 29.8755°E)
Time: 01:22:15
(UTC+00:00)

ISS - Pass Details

Date: 13 November 2025
Orbit: 416 x 421 km, 51.6° (Epoch: 07 December)

Event Time Altitude Azimuth Distance (km) Brightness Sun altitude
Rises 15:29:10 0° 216° (SW) 2,354 1.0 -7.6°
Reaches altitude 10° 15:31:17 10° 211° (SSW) 1,493 -0.2 -8.0°
Maximum altitude 15:34:32 50° 135° (SE) 541 -3.4 -8.7°
Enters shadow 15:37:27 12° 61° (ENE) 1,357 -1.8 -9.2°
